Meteo pe oră la Aller

Astăzi, 23 Ianuarie, Sâmbătă

Timp Temperatura Precipitaţii Vânt Presiune Umiditate
00:00 0°C° 0.2 mm 3 m/s 665 mmHg 88%
01:00 -1°C° 0.4 mm 4 m/s 665 mmHg 89%
02:00 -1°C° 0.4 mm 4 m/s 665 mmHg 91%
03:00 0°C° 0.4 mm 4 m/s 665 mmHg 93%
04:00 0°C° 0.8 mm 4 m/s 665 mmHg 93%
05:00 +1°C° 0.8 mm 3 m/s 665 mmHg 94%
06:00 +1°C° 0.8 mm 3 m/s 665 mmHg 94%
07:00 +1°C° 0.8 mm 2 m/s 666 mmHg 94%
08:00 +1°C° 0.8 mm 2 m/s 666 mmHg 94%
09:00 +2°C° 0.8 mm 1 m/s 666 mmHg 95%
10:00 +2°C° 0.9 mm 1 m/s 666 mmHg 95%
11:00 +2°C° 0.9 mm 1 m/s 665 mmHg 96%
12:00 +2°C° 0.9 mm 1 m/s 665 mmHg 97%
13:00 +2°C° 0.9 mm 2 m/s 664 mmHg 96%
14:00 +2°C° 0.9 mm 2 m/s 663 mmHg 96%
15:00 +2°C° 0.9 mm 2 m/s 662 mmHg 95%
16:00 +2°C° 1.2 mm 2 m/s 661 mmHg 96%
17:00 +2°C° 1.2 mm 2 m/s 661 mmHg 97%
18:00 +2°C° 1.2 mm 2 m/s 660 mmHg 98%
19:00 +3°C° 0.4 mm 2 m/s 661 mmHg 97%
20:00 +3°C° 0.4 mm 2 m/s 661 mmHg 96%
21:00 +2°C° 0.4 mm 3 m/s 661 mmHg 95%
22:00 +1°C° 2.2 mm 3 m/s 662 mmHg 96%
23:00 +2°C° 2.2 mm 2 m/s 663 mmHg 97%

Mâine, 24 Ianuarie, Duminică

Timp Temperatura Precipitaţii Vânt Presiune Umiditate
00:00 +2°C° 2.2 mm 2 m/s 663 mmHg 98%
01:00 +2°C° 1.7 mm 2 m/s 664 mmHg 97%
02:00 +1°C° 1.7 mm 2 m/s 664 mmHg 97%
03:00 +1°C° 1.7 mm 2 m/s 665 mmHg 97%
04:00 +1°C° 0.3 mm 2 m/s 665 mmHg 96%
05:00 +1°C° 0.3 mm 2 m/s 666 mmHg 96%
06:00 -1°C° 0.3 mm 2 m/s 666 mmHg 96%
07:00 +1°C° 0.1 mm 2 m/s 667 mmHg 95%
08:00 +1°C° 0.1 mm 2 m/s 667 mmHg 95%
09:00 +2°C° 0.1 mm 1 m/s 668 mmHg 94%
10:00 +3°C° 0.1 mm 1 m/s 668 mmHg 92%
11:00 +2°C° 0.1 mm 2 m/s 668 mmHg 89%
12:00 +3°C° 0.1 mm 2 m/s 669 mmHg 87%
13:00 +3°C° 0.1 mm 2 m/s 669 mmHg 87%
14:00 +3°C° 0.1 mm 2 m/s 669 mmHg 88%
15:00 +3°C° 0.1 mm 2 m/s 669 mmHg 89%
16:00 +4°C° 0.2 mm 1 m/s 669 mmHg 91%
17:00 +3°C° 0.2 mm 1 m/s 669 mmHg 93%
18:00 +3°C° 0.2 mm 1 m/s 669 mmHg 96%
19:00 +3°C° 0.3 mm 1 m/s 670 mmHg 96%
20:00 +3°C° 0.3 mm 1 m/s 670 mmHg 96%
21:00 +3°C° 0.3 mm 1 m/s 670 mmHg 96%
22:00 +3°C° 0.1 mm 1 m/s 670 mmHg 96%
23:00 +2°C° 0.1 mm 0 m/s 671 mmHg 96%

Poimâine, 25 Ianuarie, Luni

Timp Temperatura Precipitaţii Vânt Presiune Umiditate
00:00 +1°C° 0.1 mm 0 m/s 671 mmHg 96%
01:00 +2°C° 0 mm 1 m/s 671 mmHg 96%
02:00 +2°C° 0 mm 1 m/s 671 mmHg 95%
03:00 +1°C° 0 mm 1 m/s 671 mmHg 94%
04:00 +1°C° 0 mm 1 m/s 670 mmHg 92%
05:00 0°C° 0 mm 1 m/s 670 mmHg 90%
06:00 -1°C° 0 mm 1 m/s 670 mmHg 88%
07:00 0°C° 0 mm 1 m/s 670 mmHg 85%
08:00 0°C° 0 mm 1 m/s 671 mmHg 82%
09:00 +1°C° 0 mm 1 m/s 672 mmHg 78%
10:00 +2°C° 0 mm 1 m/s 672 mmHg 80%
11:00 +4°C° 0 mm 1 m/s 672 mmHg 81%
12:00 +4°C° 0 mm 0 m/s 673 mmHg 82%
13:00 +4°C° 0 mm 0 m/s 673 mmHg 81%
14:00 +5°C° 0 mm 1 m/s 672 mmHg 80%
15:00 +6°C° 0 mm 1 m/s 672 mmHg 80%
16:00 +5°C° 0 mm 1 m/s 672 mmHg 82%
17:00 +4°C° 0 mm 1 m/s 672 mmHg 85%
18:00 +2°C° 0 mm 2 m/s 672 mmHg 87%
19:00 +2°C° 0 mm 2 m/s 672 mmHg 86%
20:00 +2°C° 0 mm 2 m/s 673 mmHg 86%
21:00 +2°C° 0 mm 2 m/s 673 mmHg 85%
22:00 +2°C° 0 mm 2 m/s 673 mmHg 86%
23:00 +3°C° 0 mm 2 m/s 673 mmHg 86%

26 Ianuarie, Marţi

Timp Temperatura Precipitaţii Vânt Presiune Umiditate
00:00 +3°C° 0 mm 2 m/s 673 mmHg 86%
01:00 +3°C° 0 mm 2 m/s 673 mmHg 87%
02:00 +3°C° 0 mm 2 m/s 673 mmHg 87%
03:00 +4°C° 0 mm 2 m/s 673 mmHg 88%
04:00 +4°C° 0.3 mm 2 m/s 673 mmHg 89%
05:00 +4°C° 0.3 mm 2 m/s 672 mmHg 91%
06:00 +4°C° 0.3 mm 2 m/s 672 mmHg 93%
07:00 +4°C° 1 mm 2 m/s 672 mmHg 94%
08:00 +5°C° 1 mm 2 m/s 673 mmHg 94%
09:00 +5°C° 1 mm 2 m/s 673 mmHg 95%
10:00 +5°C° 0.6 mm 2 m/s 673 mmHg 95%
11:00 +6°C° 0.6 mm 2 m/s 674 mmHg 95%
12:00 +7°C° 0.6 mm 2 m/s 674 mmHg 95%
13:00 +8°C° 0.1 mm 1 m/s 674 mmHg 95%
14:00 +9°C° 0.1 mm 1 m/s 675 mmHg 95%
15:00 +9°C° 0.1 mm 1 m/s 675 mmHg 95%
16:00 +9°C° 0 mm 1 m/s 675 mmHg 96%
17:00 +8°C° 0 mm 1 m/s 675 mmHg 97%
18:00 +8°C° 0 mm 1 m/s 676 mmHg 97%
19:00 +8°C° 0 mm 1 m/s 676 mmHg 98%
20:00 +7°C° 0 mm 1 m/s 677 mmHg 98%
21:00 +7°C° 0 mm 1 m/s 677 mmHg 98%
22:00 +7°C° 0 mm 1 m/s 677 mmHg 98%
23:00 +7°C° 0 mm 1 m/s 678 mmHg 97%

27 Ianuarie, Miercuri

Timp Temperatura Precipitaţii Vânt Presiune Umiditate
00:00 +7°C° 0 mm 1 m/s 678 mmHg 97%
01:00 +6°C° 0 mm 1 m/s 677 mmHg 93%
02:00 +6°C° 0 mm 1 m/s 677 mmHg 89%
03:00 +6°C° 0 mm 1 m/s 677 mmHg 85%
04:00 +6°C° 0 mm 1 m/s 677 mmHg 81%
05:00 +6°C° 0 mm 1 m/s 677 mmHg 77%
06:00 +6°C° 0 mm 1 m/s 676 mmHg 73%
07:00 +6°C° 0 mm 1 m/s 677 mmHg 74%
08:00 +6°C° 0 mm 1 m/s 677 mmHg 75%
09:00 +7°C° 0 mm 1 m/s 677 mmHg 76%
10:00 +8°C° 0 mm 1 m/s 677 mmHg 78%
11:00 +9°C° 0 mm 1 m/s 678 mmHg 79%
12:00 +10°C° 0 mm 1 m/s 678 mmHg 81%
13:00 +10°C° 0 mm 1 m/s 678 mmHg 82%
14:00 +9°C° 0 mm 2 m/s 677 mmHg 83%
15:00 +9°C° 0 mm 2 m/s 677 mmHg 85%
16:00 +8°C° 0 mm 2 m/s 676 mmHg 87%
17:00 +7°C° 0 mm 2 m/s 676 mmHg 89%
18:00 +7°C° 0 mm 2 m/s 676 mmHg 92%
19:00 +6°C° 0 mm 2 m/s 676 mmHg 92%
20:00 +6°C° 0 mm 2 m/s 676 mmHg 92%
21:00 +6°C° 0 mm 2 m/s 676 mmHg 92%
22:00 +6°C° 0 mm 2 m/s 676 mmHg 92%
23:00 +6°C° 0 mm 2 m/s 676 mmHg 92%

28 Ianuarie, Joi

Timp Temperatura Precipitaţii Vânt Presiune Umiditate
00:00 +6°C° 0 mm 2 m/s 676 mmHg 92%
01:00 +6°C° 0 mm 2 m/s 676 mmHg 92%
02:00 +6°C° 0 mm 2 m/s 676 mmHg 92%
03:00 +6°C° 0 mm 2 m/s 676 mmHg 93%
04:00 +6°C° 0 mm 2 m/s 676 mmHg 93%
05:00 +6°C° 0 mm 2 m/s 676 mmHg 93%
06:00 +6°C° 0 mm 2 m/s 676 mmHg 94%
07:00 +6°C° 0 mm 2 m/s 676 mmHg 93%
08:00 +6°C° 0 mm 2 m/s 677 mmHg 91%
09:00 +6°C° 0 mm 2 m/s 677 mmHg 90%
10:00 +8°C° 0 mm 2 m/s 677 mmHg 87%
11:00 +9°C° 0 mm 2 m/s 678 mmHg 83%
12:00 +10°C° 0 mm 2 m/s 678 mmHg 80%
13:00 +10°C° 0 mm 2 m/s 678 mmHg 80%
14:00 +10°C° 0 mm 2 m/s 677 mmHg 80%
15:00 +10°C° 0 mm 2 m/s 677 mmHg 80%
16:00 +9°C° 0 mm 2 m/s 677 mmHg 83%
17:00 +7°C° 0 mm 2 m/s 677 mmHg 86%
18:00 +6°C° 0 mm 2 m/s 676 mmHg 90%
Arată mai mult

Formular de consimțământ

Meteoprog și furnizorii noștri de servicii pot stoca și accesa date personale, precum cookies, identificatori de dispozitiv sau alte tehnologii similare pe dispozitivul dumneavoastră și procesa astfel de date pentru a personaliza conținutul și reclamele, dar și pentru a oferi caracteristici de social media și pentru a analiza traficul.

  • Stocarea și/sau accesarea informațiilor pe dispozitivul dumneavoastră

    Cookies, identificatori de dispozitiv sau alte informații pot fi stocate sau accesate pe dispozitiv în scopurile indicate mai sus.

  • Reclame și conținut personalizat, evaluarea reclamelor și a conținutului, informații despre audiențe și dezvoltarea produselor

    Reclamele și conținutul pot fi personalizate pe baza unui profil. Pot fi adăugate date suplimentare pentru a personaliza mai bine reclamele și conținutul. Performanța reclamelor și conținutului poate fi măsurată. Pot fi obținute informații despre utilizatorii care au văzut reclamele și conținutul. Aceste date pot fi utilizate pentru a dezvolta sau îmbunătăți experiența utilizatorilor, sistemele și software-ul.

Dând clic pe ‘Sunt de acord’, permiteți utilizarea cookie-urilor menționate, a identificatorilor de dispozitiv, balizelor web sau altor tehnologii similare. Setările pot fi modificate din browser-ul dispozitivului dumneavoastră.

În anumite scopuri, interesele legitime pot prima asupra consimțământului. Puteți citi mai multe informații în acest sens în Politica privind Confidențialitatea Datelor și Cookie.